Location: Newark
(40.9833°N, 0.0333°W)
Time: 14:44:30
(UTC+00:00)

Tiros 1 despin weight - Visible Passes

Search period start: 31 October 2020 00:00
Search period end: 10 November 2020 00:00
Orbit: 594 x 641 km, 48.2° (Epoch: 31 October)

Date Brightness Start Highest point End Pass type
(mag) Time Alt. Az. Time Alt. Az. Time Alt. Az.
31 Oct ? 04:26:24 72° N 04:26:36 73° NNE 04:31:00 10° ESE visible
01 Nov ? 03:05:25 10° E 03:05:25 10° E 03:05:28 10° E visible
01 Nov ? 04:42:30 59° WSW 04:43:02 66° SSW 04:47:24 10° SE visible
02 Nov ? 03:21:36 14° E 03:21:36 14° E 03:22:16 10° ESE visible
02 Nov ? 04:58:40 33° WSW 04:59:20 35° SW 05:03:20 10° SSE visible
03 Nov ? 03:37:50 17° ESE 03:37:50 17° ESE 03:38:50 10° ESE visible
03 Nov ? 05:14:55 18° SW 05:15:29 19° SW 05:18:33 10° S visible
04 Nov ? 03:54:10 16° SE 03:54:10 16° SE 03:55:04 10° SE visible
05 Nov ? 04:10:35 11° SSE 04:10:35 11° SSE 04:10:45 10° SSE visible
07 Nov ? 18:43:10 10° S 18:44:23 14° SSE 18:44:23 14° SSE visible
08 Nov ? 18:58:18 10° SSW 19:00:40 25° S 19:00:40 25° S visible
09 Nov ? 17:36:03 10° SSE 17:37:52 12° SE 17:39:42 10° ESE visible
09 Nov ? 19:14:12 10° SW 19:16:51 33° SW 19:16:51 33° SW visible
